Theta_e
313 307 305 306 308 309 310 310 309 308 307 306 306 306 307 306 308 313 313 315 324 318 317 319 321 323 322 324 330 335 341 337 335 335 337 338 338 340 343 343 342 343 344 349 349 353 353 355 354 355 352 353 352 355 356 355 356 357 356 356 355 356 357 356 355 354 353 352 353 354 351 351 353 355 356 356 358 358 359 361 362 363 362 362 361 362
311 305 306 309 310 310 309 309 308 307 307 305 305 306 306 307 306 316 314 322 327 319 316 325 320 322 325 326 329 339 335 332 334 335 336 339 339 341 343 343 344 345 347 349 349 352 351 352 356 355 355 354 352 352 353 354 356 355 355 355 355 355 356 356 355 355 354 355 353 351 352 351 352 354 353 354 357 356 359 363 364 362 362 361 361 361
305 303 307 310 311 310 309 308 308 307 305 306 305 306 306 306 309 317 321 319 326 322 314 323 319 319 324 327 331 338 336 334 334 337 337 339 340 341 343 342 343 344 345 347 349 350 348 351 353 355 355 355 354 352 350 355 356 355 356 357 357 356 356 355 355 354 354 355 356 354 353 353 352 355 356 355 357 359 359 359 362 363 362 362 360 360
302 305 309 311 311 309 308 308 307 307 307 306 306 304 303 309 305 304 320 327 330 320 319 322 317 316 323 329 333 337 336 338 348 347 346 344 341 342 342 342 342 343 344 346 347 348 350 350 350 352 354 355 354 353 352 354 355 354 356 357 358 356 356 356 355 356 356 355 357 357 357 356 355 354 357 358 358 360 360 357 360 361 360 360 359 360
305 310 312 311 310 309 307 308 307 306 305 307 306 306 306 305 307 307 313 326 329 328 328 321 316 311 314 320 329 339 341 343 343 345 346 347 349 349 350 346 347 345 347 348 348 350 351 350 349 350 353 356 354 354 352 352 353 354 355 356 358 357 354 355 355 355 355 356 356 355 355 356 355 355 354 355 354 357 358 357 357 357 359 359 359 359
307 311 312 310 309 309 308 307 307 307 305 306 308 307 307 308 307 307 312 313 316 315 328 322 304 303 317 318 319 337 337 336 342 341 340 343 345 346 343 344 348 349 349 348 347 348 350 351 351 350 352 354 354 354 354 354 352 355 355 354 356 358 355 354 355 355 355 353 351 351 349 347 348 347 350 350 350 352 353 353 355 357 356 357 360 362
309 312 310 309 308 308 307 307 309 308 305 304 306 309 308 308 307 307 307 310 303 301 322 323 304 300 311 312 322 330 333 335 341 339 340 343 345 344 343 344 345 347 347 349 348 348 347 347 347 348 348 350 352 354 355 355 355 355 354 355 356 356 357 354 354 357 355 352 353 352 350 350 349 348 351 355 353 352 354 355 356 356 356 359 359 360
310 310 309 309 308 307 307 305 308 309 306 304 309 309 309 307 306 306 307 309 306 316 323 320 315 304 303 311 324 329 328 333 336 337 340 342 344 343 342 343 345 347 349 347 345 345 345 346 346 346 348 350 351 354 354 355 355 354 355 356 355 355 354 355 354 356 357 355 353 354 351 349 350 349 350 354 354 354 356 355 356 356 356 360 359 358
310 307 308 307 307 307 306 308 310 310 306 308 310 309 309 308 308 308 308 307 309 308 305 315 318 306 304 314 325 326 325 327 330 334 337 340 341 341 342 341 343 348 346 344 343 342 343 344 346 347 347 350 352 353 352 354 354 354 356 357 358 358 356 354 354 356 358 357 355 353 349 348 351 350 351 355 356 354 356 356 357 357 356 357 359 361
310 310 309 309 308 306 309 310 310 310 307 311 315 313 314 313 311 310 309 308 310 306 301 307 315 304 303 313 320 322 321 322 325 331 334 337 339 340 338 337 342 346 344 344 343 342 343 345 347 350 349 349 348 353 353 355 355 354 356 357 357 355 353 349 354 355 358 356 356 351 351 350 349 350 350 352 353 354 355 356 358 358 356 354 355 359
311 315 313 309 308 310 311 310 310 310 312 316 316 312 311 311 312 312 313 313 310 302 304 309 312 309 302 310 314 315 321 321 323 327 331 336 338 337 336 337 340 341 343 343 342 343 343 347 349 349 348 351 346 344 351 353 353 352 354 356 353 353 352 353 355 357 352 352 352 351 352 352 351 349 351 349 351 353 354 354 355 356 356 354 352 353
311 311 310 312 314 313 311 308 309 310 314 314 311 308 308 308 312 312 312 310 301 299 307 310 310 313 301 309 317 323 325 325 325 326 330 331 334 334 336 336 339 341 342 342 342 343 343 345 346 349 347 344 345 347 351 348 351 352 353 353 353 350 351 353 353 356 352 349 348 354 355 354 353 352 349 350 350 352 352 351 351 355 354 353 353 353
307 308 311 312 316 312 309 308 308 309 315 312 309 308 302 301 303 299 306 298 301 299 310 313 315 310 308 311 315 323 324 327 329 330 329 331 332 334 334 338 342 342 342 342 341 342 342 342 343 346 346 346 348 349 348 350 350 350 351 350 349 348 350 348 354 354 352 346 347 356 355 354 354 353 352 353 353 352 351 350 351 354 353 353 352 352
306 310 310 310 311 314 312 305 306 305 311 309 306 305 301 297 296 294 297 301 300 304 310 311 319 307 308 310 321 321 326 329 332 332 333 331 332 333 334 337 340 341 342 341 340 342 343 344 344 342 343 343 345 347 349 351 350 350 349 348 347 347 348 353 355 352 354 352 351 352 348 352 354 353 353 353 352 351 352 352 352 352 350 352 351 351
300 300 306 308 306 313 311 310 310 309 309 309 310 306 304 303 297 294 296 294 296 299 307 318 307 304 304 318 324 326 328 330 331 332 334 334 335 336 337 338 340 341 342 342 341 340 344 345 344 342 340 343 346 349 348 349 350 350 350 349 348 346 354 356 349 349 349 349 350 350 349 356 350 352 351 352 353 353 350 351 352 353 351 351 351 349
302 303 308 311 310 311 309 313 312 309 308 310 309 310 304 303 307 299 302 300 300 299 300 308 303 308 310 325 328 329 328 330 331 332 334 333 336 337 336 336 338 340 340 341 343 342 344 346 346 347 347 347 347 346 347 347 348 348 347 349 350 351 349 351 351 348 348 346 347 348 348 346 348 352 352 354 355 355 353 353 353 354 354 351 351 352
305 303 310 310 311 310 310 312 311 312 301 307 308 303 306 312 308 304 304 307 305 303 299 308 306 310 319 321 324 327 327 329 329 330 331 332 333 335 334 336 337 339 340 341 342 342 344 346 347 347 347 347 346 345 345 349 347 349 350 347 345 350 351 349 348 349 351 348 348 347 346 349 348 349 351 352 354 353 354 355 354 352 351 351 352 350
303 304 310 309 307 310 312 312 312 312 312 309 303 307 312 313 310 305 299 302 300 296 299 304 301 305 308 302 323 324 325 327 327 329 329 333 334 333 334 336 338 339 341 343 345 345 344 346 346 348 349 347 346 345 344 344 346 347 346 345 347 346 346 349 350 351 353 354 353 354 350 346 347 349 351 352 351 352 354 354 354 354 351 350 350 351
309 302 307 309 309 310 312 311 309 312 312 309 308 313 305 301 301 307 303 296 295 295 298 302 305 305 308 309 316 320 321 324 326 329 331 331 333 333 335 336 338 339 341 342 343 344 345 345 345 346 347 347 346 344 346 347 347 349 348 349 350 350 347 347 346 349 352 356 353 352 349 349 347 349 350 351 353 354 353 352 352 351 351 350 352 351
310 302 304 310 309 310 310 310 304 307 311 312 313 310 312 309 304 302 304 304 303 297 297 299 304 301 311 309 311 317 322 324 325 327 327 330 333 335 336 336 337 337 339 341 343 344 345 344 345 346 347 347 344 345 346 346 348 349 349 347 348 349 347 347 349 351 352 348 350 351 351 350 351 351 350 352 353 352 352 351 350 349 349 349 350 350
308 311 300 307 311 310 305 308 306 308 306 307 307 307 308 308 311 308 307 304 301 298 298 299 297 303 313 319 317 321 322 325 326 326 328 331 333 336 337 338 338 339 339 340 342 343 344 345 345 348 348 349 349 348 347 348 347 347 348 347 346 344 344 346 347 351 349 354 355 352 347 349 351 350 352 352 353 351 352 351 353 351 351 351 350 351
308 307 302 306 306 305 307 312 312 311 311 309 308 306 307 305 304 301 300 309 306 302 297 298 298 307 318 327 326 326 329 327 329 329 328 332 335 337 338 340 341 340 341 341 341 341 344 346 345 346 345 345 347 349 347 347 347 347 346 347 347 347 348 348 349 351 349 348 349 349 349 350 352 354 354 351 351 351 350 350 352 353 351 350 351 352
312 310 307 303 305 306 310 312 315 314 313 311 310 308 310 309 307 303 295 302 306 306 306 305 301 304 322 326 327 328 328 329 330 331 330 332 336 339 340 343 344 345 343 342 343 342 346 348 347 346 346 346 346 347 350 350 348 347 347 348 348 348 349 351 350 350 351 349 350 352 351 351 353 354 352 351 351 349 348 350 351 352 351 350 352 352
314 308 304 305 309 310 311 314 315 313 312 310 310 311 310 306 307 305 305 306 303 305 304 304 302 305 326 330 332 332 335 335 335 333 332 332 336 339 343 344 346 346 346 346 347 346 349 348 350 350 347 345 345 346 346 348 349 349 348 347 347 347 350 352 353 352 352 352 352 354 353 351 353 352 351 350 350 348 349 349 349 350 351 352 352 350
305 309 306 302 302 304 306 310 309 313 312 309 308 310 311 311 310 309 309 310 303 305 305 302 297 304 318 329 331 332 331 330 331 332 335 331 334 339 342 345 346 347 347 348 348 350 350 349 350 350 349 348 346 347 348 347 348 348 349 349 350 351 350 354 355 354 354 354 353 349 349 351 354 352 351 350 349 348 348 349 348 350 351 352 351 352
308 309 308 300 297 295 295 296 299 303 306 309 310 309 311 310 309 308 303 307 300 309 307 303 304 314 317 327 329 329 329 329 331 332 334 337 336 336 340 343 346 347 347 348 348 350 350 350 352 353 352 349 348 348 348 349 349 349 348 351 354 355 354 354 355 354 355 354 353 354 353 354 351 349 351 350 349 349 349 349 349 350 350 352 351 351
309 312 310 307 304 301 304 307 309 310 308 305 307 308 309 310 311 310 308 304 301 308 305 309 308 308 311 318 320 325 327 328 329 331 331 333 337 339 341 342 344 346 347 347 348 349 351 351 350 353 353 351 351 349 349 348 349 350 350 350 352 354 355 355 356 356 356 354 352 351 351 351 351 351 350 350 350 350 350 349 349 350 350 351 351 350
312 308 309 311 309 308 308 309 310 310 306 307 307 307 309 309 310 308 305 303 312 305 301 310 312 308 310 312 316 318 325 328 328 330 332 333 334 336 339 343 343 346 346 348 347 347 347 351 351 352 353 351 350 349 349 349 350 351 353 351 350 353 354 355 354 355 354 354 354 352 353 353 352 352 352 352 353 352 350 349 350 350 352 352 351 349
310 305 309 308 308 309 309 310 314 310 308 308 308 308 309 309 309 307 307 308 309 305 302 309 312 309 311 312 314 318 324 329 327 328 332 335 336 337 337 339 339 341 343 344 345 346 347 347 349 351 352 352 350 348 349 349 351 351 352 353 352 351 353 354 354 354 353 353 353 354 355 355 355 354 354 354 353 351 351 350 351 351 352 353 351 348
314 308 309 310 308 308 309 309 310 308 308 308 308 308 309 309 310 309 308 309 309 309 310 310 312 310 311 313 317 319 324 327 330 333 335 336 335 336 336 336 336 339 341 342 343 345 346 347 348 351 352 352 351 349 350 350 350 351 351 351 352 352 353 354 354 354 353 353 353 355 356 356 357 356 355 355 352 353 351 350 350 349 349 350 351 351
310 309 311 309 307 307 309 311 310 310 309 307 308 308 309 309 309 310 310 310 311 309 310 310 310 310 315 319 326 329 337 339 338 335 333 335 336 336 335 334 335 337 340 342 343 344 346 347 347 349 350 351 353 353 351 351 351 352 351 351 353 353 354 355 354 355 356 355 356 357 358 358 357 357 357 357 355 354 353 350 349 349 350 350 350 351
310 309 313 311 304 304 308 308 308 309 308 307 307 309 309 308 307 309 309 312 310 308 309 311 309 309 317 323 331 331 332 332 332 332 331 333 334 335 333 332 334 335 338 341 343 343 345 346 346 346 348 350 352 354 354 352 351 351 351 352 352 353 354 353 353 353 357 357 358 359 360 359 358 357 356 357 357 356 356 352 351 351 351 349 349 352
313 310 308 307 303 303 307 308 307 307 306 303 305 308 310 310 311 310 311 313 313 312 309 309 308 314 325 324 324 327 325 327 329 331 332 333 335 335 332 331 334 336 336 340 341 344 344 345 347 348 349 351 352 353 355 357 354 352 352 352 353 355 354 353 353 352 355 358 359 361 361 360 360 359 356 356 357 358 358 357 353 351 351 350 351 350
314 311 308 310 303 303 307 307 308 304 297 299 311 313 312 309 310 308 309 311 315 314 312 314 314 322 323 322 317 324 323 327 330 335 336 336 336 335 333 334 335 338 338 339 341 343 345 345 347 350 350 351 353 356 357 360 359 358 356 354 355 355 354 354 352 350 350 352 355 357 360 360 360 360 360 358 357 357 357 356 355 354 352 353 353 351
312 312 308 313 305 302 307 307 302 296 298 314 317 318 316 313 312 311 312 312 314 317 316 315 316 317 320 321 322 326 329 337 338 337 337 338 338 336 334 336 337 338 339 341 342 343 344 347 347 350 351 352 354 357 356 357 360 360 359 355 349 348 350 352 352 353 351 347 348 351 354 354 358 360 362 362 360 357 357 356 357 356 356 354 354 354
311 310 312 307 307 308 305 303 295 297 309 313 315 316 317 316 316 314 311 313 317 318 319 317 317 317 323 327 325 329 335 337 340 344 342 340 337 335 333 336 340 341 341 342 343 345 345 347 349 349 350 354 356 357 357 357 359 360 352 349 348 349 349 346 345 345 347 347 347 350 352 352 354 356 360 362 362 361 359 358 357 357 359 358 358 357
314 313 312 306 310 301 303 302 301 311 308 311 309 313 313 311 312 310 305 309 314 317 319 318 319 320 327 327 330 330 334 331 329 333 345 342 339 335 333 335 338 341 343 344 343 347 350 353 353 353 356 357 357 358 360 360 359 359 349 349 348 348 349 350 349 347 345 344 346 348 350 352 353 353 353 356 359 360 360 360 360 359 361 359 360 359
318 311 312 307 306 307 301 300 301 300 298 304 312 315 317 316 317 316 312 309 316 319 321 320 320 322 328 328 330 333 334 324 318 323 334 339 337 336 334 336 338 339 340 340 345 352 356 357 356 357 357 358 357 358 359 360 358 359 354 345 347 347 346 346 348 350 350 347 347 347 348 350 352 352 353 353 353 353 354 357 360 359 360 357 356 356
315 316 316 309 305 306 303 299 299 298 302 310 311 314 317 320 316 316 310 305 315 319 321 321 320 325 329 329 332 332 322 314 315 323 331 337 336 336 336 337 337 337 340 342 342 344 349 354 355 355 355 355 355 356 356 354 352 350 352 349 347 349 349 349 351 352 352 351 352 350 348 349 350 351 353 353 352 351 352 352 350 359 361 360 358 357
311 311 311 307 305 305 304 301 299 304 303 310 313 316 316 318 318 313 301 302 316 319 322 323 321 322 329 331 331 327 319 313 316 325 332 334 335 336 337 338 338 339 340 341 342 345 353 356 354 351 350 350 351 354 353 352 350 349 348 347 348 347 351 352 354 356 355 356 356 355 352 352 350 350 351 352 352 348 346 348 348 347 348 352 359 357
307 308 309 304 304 304 304 303 304 305 313 316 315 317 317 317 315 304 298 307 319 319 323 324 323 327 333 332 328 322 323 330 336 335 334 335 335 337 339 341 342 341 340 341 344 350 349 349 348 348 349 351 352 352 352 351 349 347 346 346 345 345 347 350 351 351 351 354 355 354 352 352 352 351 352 353 352 353 354 349 349 349 349 352 357 355
307 309 308 309 305 303 304 301 302 306 315 315 317 315 317 313 303 302 316 327 325 324 324 327 326 333 335 334 328 326 332 337 338 336 335 335 337 341 341 341 341 341 343 348 349 347 346 347 351 350 349 349 348 349 349 349 345 344 345 345 343 346 348 349 350 352 351 351 351 352 351 350 350 351 351 351 349 348 348 352 352 352 349 347 353 352
306 304 303 304 307 306 306 303 299 294 314 316 317 313 317 309 312 322 326 328 325 327 326 330 331 336 335 332 332 337 336 336 332 331 333 335 338 340 341 342 343 343 345 347 347 348 346 347 348 348 348 348 347 346 347 346 344 344 345 343 345 348 349 349 349 350 350 350 348 348 347 347 346 347 348 348 347 346 346 347 348 348 349 351 351 351
314 305 305 307 309 302 302 300 299 310 318 322 318 312 317 319 326 328 326 321 326 325 326 328 332 337 335 333 333 335 334 335 335 335 336 336 337 340 342 344 344 345 345 343 345 346 345 346 348 347 346 346 345 345 345 344 342 343 343 343 348 349 349 348 348 349 348 348 347 347 347 346 345 344 345 346 346 346 345 344 345 345 344 346 346 346
317 311 317 307 313 308 305 310 315 322 322 323 324 323 325 327 329 328 328 327 324 324 329 327 328 334 337 337 337 336 334 336 337 337 335 337 339 340 342 343 343 342 341 342 343 346 346 345 346 345 343 344 344 345 345 344 343 343 343 345 348 347 348 347 346 346 346 345 345 345 345 345 346 345 343 343 342 341 341 342 343 342 344 344 344 343
318 320 321 317 313 320 318 319 322 322 323 323 324 326 325 327 329 329 327 326 328 328 329 327 326 333 335 340 335 333 333 335 335 336 338 338 338 342 344 344 344 344 344 346 347 347 346 346 345 343 342 342 344 344 344 344 344 342 343 346 346 347 347 346 345 344 344 344 343 343 342 342 343 343 342 341 341 341 341 340 340 339 340 342 342 341
318 316 315 310 317 308 304 320 320 320 322 323 323 326 327 328 329 330 329 329 331 333 334 335 331 334 335 339 336 334 335 335 335 337 339 340 342 345 344 344 344 345 345 345 347 346 346 345 342 341 341 341 342 343 342 343 342 343 344 345 345 346 346 345 344 343 342 341 340 342 341 339 340 341 341 341 339 339 339 339 338 339 337 338 338 339
312 319 313 313 314 310 310 321 321 321 325 324 325 324 325 327 329 331 331 331 332 333 334 334 335 334 336 335 337 338 336 335 336 338 339 340 341 342 344 346 346 346 347 349 348 347 345 343 342 341 340 340 340 340 341 341 341 342 343 343 344 343 344 343 343 342 342 340 340 341 340 340 337 336 340 340 339 338 339 339 338 337 336 336 337 337
316 317 309 314 312 314 317 320 320 320 323 324 325 326 327 327 329 330 333 332 331 332 334 335 335 336 335 337 342 340 337 336 337 337 338 342 343 345 346 347 348 348 348 347 347 347 343 343 342 340 339 340 341 341 340 340 341 342 343 343 343 345 343 343 343 341 342 340 340 339 340 339 340 339 338 339 339 340 339 338 338 338 338 340 339 337
315 311 315 313 310 308 309 315 317 312 314 321 323 324 326 329 330 331 334 332 333 333 333 334 336 337 338 342 340 338 339 341 339 340 337 342 344 346 348 348 348 346 345 344 343 344 342 340 340 339 338 338 339 339 339 340 340 341 342 343 345 344 343 342 341 340 338 338 339 340 340 340 339 338 338 338 338 338 339 336 325 329 337 338 333 325
313 315 313 310 310 308 314 317 319 319 319 321 322 323 327 329 330 330 333 333 333 336 339 336 335 338 338 338 335 334 338 340 339 339 339 340 346 348 348 348 345 343 343 343 342 342 341 341 338 338 336 338 339 338 338 338 339 340 342 343 344 343 343 342 340 339 339 339 339 338 339 338 337 338 338 338 338 337 336 338 336 307 307 316 321 315
Wind_Speed
4 9 9 10 9 9 9 8 8 9 9 8 9 9 8 8 8 2 2 1 2 5 8 8 8 9 8 5 5 6 5 5 6 7 7 7 7 7 7 7 7 7 7 5 7 8 11 14 12 14 14 14 16 14 13 12 12 12 11 10 11 9 10 9 9 8 8 8 8 7 8 8 8 7 7 7 7 6 6 7 6 7 6 7 7 6
6 9 10 11 10 6 4 4 6 9 8 9 9 9 8 7 7 4 1 4 3 5 0 1 6 9 8 6 5 6 6 7 7 6 7 8 7 6 7 7 7 6 5 5 6 7 10 11 16 15 13 15 17 15 15 15 13 12 12 12 11 9 10 10 9 8 8 8 7 8 8 8 8 7 7 7 7 7 7 7 6 6 6 7 6 6
8 11 9 10 8 5 4 6 7 8 9 9 9 7 7 7 2 6 3 3 4 4 5 2 8 7 6 7 4 6 6 6 6 5 5 7 7 6 6 6 6 6 6 6 7 9 10 12 14 15 14 15 17 17 17 15 15 15 12 12 11 10 10 10 10 9 8 8 7 8 8 8 7 7 7 7 7 6 7 8 7 6 6 7 6 6
8 10 12 2 2 5 7 7 7 9 9 9 8 8 8 3 5 3 7 5 6 4 5 5 9 7 6 6 5 4 5 4 1 2 4 4 8 9 7 6 5 6 6 7 8 8 9 10 12 15 15 15 16 16 16 17 16 14 13 13 12 12 11 9 10 10 9 9 8 7 8 7 6 7 6 6 7 7 7 8 8 6 7 7 7 7
4 8 5 4 3 5 8 8 9 8 8 10 10 8 8 8 4 7 3 5 4 7 5 7 8 9 8 7 6 5 4 4 5 5 5 4 3 5 5 5 6 6 6 7 7 7 7 9 12 15 16 15 16 17 18 18 15 11 15 14 14 12 11 10 10 11 10 9 9 8 7 8 5 6 7 7 7 8 7 7 8 8 8 8 6 6
10 2 3 5 7 6 8 8 10 8 8 7 11 10 10 9 8 3 3 6 6 5 6 4 6 6 5 2 3 5 5 6 5 6 6 6 7 6 7 6 6 6 4 4 5 6 6 8 10 12 15 15 15 17 17 17 16 14 13 14 13 10 10 11 12 11 9 9 10 9 9 9 8 8 9 9 9 9 9 8 8 9 9 8 7 6
3 5 4 6 6 7 8 9 7 10 8 8 5 1 5 10 10 7 7 5 6 5 5 4 7 4 2 4 5 4 3 5 6 6 6 6 6 6 6 5 5 4 3 3 5 5 7 9 11 12 14 16 15 15 15 16 17 16 15 15 14 12 9 11 12 12 9 10 10 11 10 10 9 9 8 8 9 9 9 7 9 8 8 8 8 7
7 5 5 5 5 6 6 8 9 10 8 5 6 1 5 7 8 7 7 6 6 1 3 5 5 7 6 1 5 2 3 5 6 6 6 6 6 6 6 5 3 2 3 3 5 5 6 8 9 12 13 13 14 15 15 15 15 16 16 15 15 13 12 10 11 12 11 11 9 9 10 10 9 10 9 10 8 8 8 8 9 8 8 8 7 7
5 6 6 6 6 6 6 2 5 9 10 4 3 1 4 4 4 5 6 5 5 6 5 4 3 8 5 3 5 5 4 4 4 5 6 7 7 6 6 4 2 2 1 2 4 5 7 7 8 8 8 10 9 10 13 13 14 14 14 14 14 12 10 7 12 12 12 9 9 10 12 10 10 10 9 8 8 8 8 9 8 8 8 8 8 7
3 5 2 6 6 5 3 2 3 7 10 4 1 1 1 2 3 4 6 5 4 6 6 3 4 8 5 3 6 4 1 3 3 4 5 7 7 6 4 3 2 2 1 2 3 5 5 6 5 4 5 8 8 7 8 13 13 13 12 13 13 13 11 11 12 14 11 8 7 8 10 11 10 9 8 9 9 8 8 9 9 8 7 8 8 8
5 4 1 6 6 6 3 3 2 5 3 2 5 4 3 3 2 3 3 6 5 7 6 1 4 7 7 2 1 2 4 2 4 4 4 5 6 5 3 2 2 2 3 3 4 4 2 3 2 4 5 6 6 4 11 12 11 11 11 12 14 13 10 9 13 13 13 10 10 13 12 11 11 11 9 9 9 9 10 10 10 9 8 7 8 8
13 9 7 6 12 7 4 3 2 2 4 6 5 6 4 5 2 4 4 3 6 6 1 2 3 5 8 3 3 3 6 5 2 3 4 6 7 6 4 2 3 3 3 3 4 3 1 2 2 5 7 7 9 12 12 11 10 10 10 12 12 12 10 9 13 12 10 8 10 11 11 11 12 12 10 11 11 11 11 11 11 9 8 8 8 8
10 11 9 8 5 9 8 7 5 6 6 7 7 6 8 4 5 6 2 4 5 2 3 2 2 5 7 5 3 5 5 5 3 1 3 5 7 6 4 3 4 2 3 3 4 3 2 1 3 5 5 7 10 11 12 11 10 9 9 11 11 10 10 14 14 13 12 8 8 7 8 12 11 12 11 11 11 11 10 10 11 10 9 9 8 8
6 5 11 8 6 9 10 10 7 7 8 9 9 6 7 7 4 6 5 4 5 5 3 5 2 7 2 2 6 2 2 3 3 4 3 4 6 5 4 4 4 3 3 4 4 3 2 3 3 4 4 5 7 8 10 9 8 8 8 9 9 8 12 11 9 10 11 11 10 6 6 9 9 12 11 10 11 11 10 9 10 11 10 9 9 9
5 10 12 12 6 10 12 12 6 7 7 8 7 8 8 6 5 6 5 7 5 4 1 2 5 1 7 2 2 3 4 4 5 5 5 4 4 4 3 3 4 4 4 3 4 4 4 4 2 3 5 5 6 8 7 7 6 6 6 8 9 12 10 8 10 12 12 10 13 9 8 4 4 8 9 10 9 10 11 10 10 10 10 9 9 9
7 6 9 3 6 6 7 9 6 5 6 4 4 5 8 7 2 8 5 8 7 7 4 5 5 5 3 8 4 4 5 5 5 5 5 6 5 5 4 4 3 4 4 4 5 5 6 6 4 4 3 2 2 3 4 7 6 6 7 8 9 10 8 8 9 10 13 12 9 7 4 5 8 8 10 8 8 9 10 10 10 10 9 9 9 8
5 6 7 5 4 4 3 2 7 5 7 4 5 7 2 5 7 6 5 2 7 5 8 3 5 5 6 6 4 6 6 6 6 6 6 6 7 6 5 4 3 3 5 4 5 5 6 6 6 5 4 3 2 1 2 3 6 6 5 7 9 7 7 8 11 12 12 14 14 15 14 9 10 12 11 10 12 11 10 9 9 10 10 9 8 9
7 0 9 4 5 5 1 4 2 6 5 4 8 3 6 2 6 6 7 6 6 6 4 2 7 5 4 1 4 7 8 8 7 7 6 6 7 7 5 4 4 4 5 4 5 6 7 6 7 6 6 6 5 5 5 6 5 5 6 8 8 7 10 9 5 7 8 10 11 11 9 12 11 13 12 10 11 11 10 9 9 9 10 10 9 9
3 8 5 3 1 6 5 6 6 4 6 9 6 3 7 1 5 3 5 6 7 6 5 5 1 6 4 2 6 8 8 8 7 6 6 7 7 6 5 5 5 5 5 5 6 7 7 7 8 9 11 13 12 9 9 9 10 10 10 9 10 11 9 7 8 11 6 6 7 9 12 12 14 12 10 10 10 10 10 11 10 10 9 10 9 9
4 8 4 6 5 7 7 7 9 10 8 5 4 6 2 6 5 6 4 6 5 7 6 4 3 5 3 2 8 6 5 6 7 6 6 5 5 5 5 4 6 6 5 5 5 6 7 8 9 9 8 14 15 14 12 11 9 10 7 7 9 8 7 7 11 6 5 10 10 9 9 12 10 10 10 10 10 10 11 11 11 11 11 10 9 9
5 3 7 6 5 6 8 7 8 4 5 6 6 6 4 4 3 7 5 6 5 7 7 6 5 2 4 3 5 3 3 5 6 5 4 3 4 3 4 4 4 5 5 5 5 6 8 9 9 9 4 2 7 8 8 9 10 10 9 9 9 9 10 10 13 10 8 5 7 9 13 11 11 12 10 11 11 11 11 11 10 10 10 9 9 9
7 7 8 5 7 8 5 3 6 6 5 4 4 4 4 4 5 5 5 2 6 5 5 6 5 3 5 1 1 3 2 4 5 5 4 4 5 4 4 4 4 5 4 5 5 6 8 9 8 7 4 4 5 6 9 9 9 11 13 11 12 11 10 11 11 10 10 11 10 13 11 11 11 11 11 12 12 11 11 11 10 10 10 10 10 10
8 3 8 8 8 4 6 4 3 3 5 7 7 6 4 5 5 5 6 4 4 4 6 6 6 3 5 5 3 2 3 3 5 4 4 5 5 6 5 5 4 3 3 3 4 4 6 7 8 8 8 7 8 7 7 7 8 9 10 11 10 10 11 12 11 9 9 11 12 12 11 11 11 11 12 13 11 12 12 11 11 10 11 10 10 10
1 6 7 9 3 1 4 3 3 1 4 8 8 9 7 7 4 6 7 6 8 4 6 2 4 2 2 4 2 3 3 3 3 3 4 5 5 6 6 6 5 5 5 4 3 3 4 5 6 7 8 7 6 8 6 4 4 7 9 9 8 10 11 11 9 11 11 10 11 12 11 12 11 12 12 12 11 13 12 11 11 10 10 10 9 10
8 7 8 6 6 7 5 5 5 4 6 7 7 5 7 7 6 5 7 4 9 5 6 6 7 1 6 4 4 4 6 8 7 6 4 6 7 5 6 6 4 5 5 6 6 5 5 4 5 5 6 6 7 7 7 8 7 6 6 8 9 9 11 9 9 10 11 11 12 14 13 12 10 11 12 12 11 12 12 11 11 10 10 10 9 10
9 6 8 9 10 10 9 8 8 8 8 7 8 5 6 10 6 4 7 2 6 2 4 6 5 8 7 6 5 6 7 8 7 8 6 4 7 6 6 6 5 4 4 5 5 5 5 4 4 5 6 6 6 6 7 8 8 8 7 7 7 8 8 9 8 10 10 10 10 9 10 9 10 13 12 12 11 12 12 11 11 11 10 10 10 10
6 5 9 10 10 9 7 6 1 4 4 8 8 10 8 9 7 6 6 7 6 2 6 3 4 8 3 7 6 6 7 8 9 8 8 8 7 7 7 6 5 5 4 4 4 4 4 4 4 4 6 6 6 6 6 6 7 7 7 7 7 6 6 8 8 8 8 9 9 9 9 10 11 9 11 11 11 11 11 11 11 11 11 10 10 11
6 8 12 14 14 14 8 3 2 8 7 8 8 7 8 8 8 7 6 5 4 5 6 1 0 6 5 4 3 4 7 8 8 8 7 7 8 8 7 7 6 6 5 4 3 3 4 3 2 3 4 5 6 6 5 5 6 7 6 7 7 7 6 6 8 8 8 8 8 10 10 10 9 9 9 10 10 10 11 11 11 11 10 11 11 11
7 8 10 13 14 13 4 3 3 7 9 8 8 7 7 8 8 9 8 6 5 6 5 4 3 5 5 6 2 2 6 7 7 7 8 8 8 8 8 7 7 6 6 5 4 3 4 3 3 3 3 4 6 7 6 6 5 5 5 6 7 8 7 7 8 8 8 7 8 7 7 7 7 8 8 9 10 10 10 10 10 10 10 10 11 11
4 9 6 9 12 13 9 7 6 10 8 9 11 10 7 8 10 9 9 7 7 7 6 6 4 7 7 5 3 2 5 6 6 5 7 9 9 8 8 7 7 7 7 5 5 5 4 4 4 4 4 4 5 6 7 6 5 5 5 5 6 7 7 7 7 7 8 7 7 7 7 7 7 7 8 9 9 10 10 10 10 10 11 11 10 10
6 2 2 7 9 11 9 6 7 10 10 11 11 11 9 8 9 9 9 6 7 8 8 6 6 8 5 2 4 5 4 6 7 8 8 8 9 9 8 7 7 6 6 5 5 4 5 4 4 3 4 4 5 5 6 6 5 5 5 5 5 6 7 7 7 6 6 6 5 5 5 6 7 7 8 8 9 10 10 11 10 10 10 11 11 11
7 4 3 4 9 10 9 10 11 11 12 14 12 10 10 10 10 8 9 8 8 8 7 4 7 7 3 6 6 6 7 9 9 9 9 8 9 9 9 8 8 7 6 6 5 5 5 4 4 4 4 4 4 5 5 5 5 5 5 5 5 5 5 6 5 4 4 4 4 5 5 6 8 8 9 9 9 9 9 10 10 10 11 11 12 10
3 5 6 8 9 11 9 11 11 11 11 13 14 12 14 12 10 7 8 7 9 8 7 6 8 4 4 5 5 7 8 8 9 9 9 9 9 10 8 8 8 8 7 6 7 6 5 4 3 4 4 3 4 4 4 4 5 5 5 5 5 4 4 4 3 4 3 4 6 7 7 8 8 8 9 10 10 9 9 10 10 11 11 11 11 10
3 5 8 4 9 11 7 9 8 10 14 12 7 13 14 12 12 11 9 9 10 9 7 6 8 1 3 3 5 6 8 9 9 9 8 9 9 9 8 7 8 8 7 6 6 6 5 5 4 4 4 4 4 4 4 4 4 4 4 4 5 4 4 3 6 6 6 7 7 7 7 6 7 7 8 9 10 10 10 11 11 11 11 10 10 11
4 4 6 2 8 12 6 7 8 15 13 1 5 3 4 9 10 12 11 9 7 8 11 11 10 10 6 4 1 0 3 5 4 9 9 9 9 9 8 8 8 8 7 7 6 5 5 5 5 4 4 3 4 4 4 4 4 5 6 6 5 3 2 5 6 6 5 5 4 5 7 8 8 8 8 8 9 10 10 11 11 11 10 10 11 11
6 7 4 5 7 4 6 9 13 13 2 5 4 4 3 2 3 6 10 10 8 9 10 12 11 8 4 4 3 3 4 5 5 6 8 8 9 8 8 8 8 8 8 7 7 6 5 5 6 5 4 4 4 4 3 3 3 4 7 7 6 5 5 4 3 3 5 4 3 4 6 9 10 9 8 8 9 10 10 11 11 11 10 10 10 10
10 7 5 8 4 10 9 12 14 1 1 7 2 6 7 9 8 10 9 9 10 11 10 10 9 6 4 4 4 4 5 5 6 7 7 8 8 8 8 8 9 8 8 7 7 6 4 5 5 6 6 5 4 4 4 4 3 4 7 6 3 4 4 3 4 4 5 5 4 5 5 6 9 9 10 9 8 9 11 11 11 11 9 10 10 10
8 9 6 9 8 7 9 10 9 12 14 10 9 7 10 7 7 8 8 10 4 6 8 9 9 6 5 5 5 6 5 6 7 8 10 10 9 8 7 7 8 9 9 8 7 7 7 8 8 7 7 7 6 5 4 4 4 3 6 7 5 4 4 4 4 4 4 4 4 5 5 7 8 9 9 9 9 8 8 9 8 9 9 10 10 11
9 9 7 9 9 6 10 10 10 11 9 4 5 4 3 2 4 3 7 10 6 7 7 8 9 8 7 7 8 7 7 7 7 6 12 12 11 10 8 9 9 9 9 9 9 9 8 8 9 8 7 7 7 5 4 3 3 3 4 7 7 6 5 4 4 4 4 4 5 5 5 6 8 8 8 8 6 6 7 6 8 6 5 8 9 10
10 9 9 10 11 10 9 10 12 7 7 2 1 4 1 3 4 5 11 9 4 3 4 8 9 8 8 8 9 8 7 7 6 7 13 13 11 10 9 9 9 9 9 9 8 9 10 10 10 8 8 7 6 4 3 2 1 2 2 2 4 6 6 6 5 4 4 3 3 5 6 5 6 7 8 7 7 5 8 5 6 7 8 10 8 8
10 9 9 11 11 11 12 11 9 9 3 5 6 5 2 5 7 10 11 3 4 4 6 8 8 7 9 10 9 7 8 2 8 10 11 12 11 10 9 8 9 9 9 9 10 11 9 8 7 7 7 6 5 3 2 1 1 1 2 2 2 3 3 3 3 4 4 4 4 3 5 5 6 6 7 5 4 4 3 5 6 7 9 10 7 6
9 7 7 8 11 11 11 11 11 7 3 3 4 2 1 5 9 11 2 5 4 4 1 3 5 7 9 10 9 6 6 8 10 11 12 11 11 10 10 9 9 9 8 10 12 9 8 8 9 9 8 6 4 2 1 1 1 0 1 2 3 3 2 3 4 4 4 5 5 4 2 0 0 1 2 2 2 3 3 3 4 5 7 8 7 7
9 9 10 10 9 9 8 9 6 10 4 5 5 2 1 9 3 5 9 9 7 5 6 3 3 6 8 8 7 5 9 8 10 11 11 11 11 11 10 10 10 10 11 11 10 9 9 8 7 7 6 5 4 2 1 1 1 1 2 3 2 3 3 4 4 4 5 4 3 3 2 3 3 3 3 4 4 5 6 5 6 5 4 4 5 7
5 10 9 9 8 9 9 11 5 2 4 3 2 4 1 4 7 8 8 10 8 7 6 5 4 3 7 7 8 8 9 10 10 12 11 11 11 11 11 10 10 10 10 9 10 9 9 8 7 6 5 3 2 2 2 2 2 2 3 3 3 3 4 3 4 4 4 4 4 4 3 2 2 2 3 4 4 5 6 6 6 6 6 7 7 6
6 6 2 7 4 8 5 2 5 2 3 2 1 4 8 9 7 7 8 10 10 7 4 5 6 3 5 7 9 10 10 10 11 11 11 11 11 12 11 11 10 10 9 9 9 9 8 8 8 6 5 4 3 3 2 2 3 3 4 2 2 3 4 5 4 4 3 2 0 1 1 2 3 2 3 3 3 4 5 5 5 6 6 7 7 8
4 1 1 5 4 1 4 1 1 2 2 3 2 3 6 6 5 6 7 9 9 8 6 6 7 4 5 8 10 10 10 11 11 9 10 11 11 11 11 10 10 9 10 10 10 9 8 9 7 5 5 4 3 3 2 3 3 4 3 1 2 4 4 4 3 3 3 2 2 1 2 3 2 2 2 3 3 4 4 4 4 5 6 6 6 8
2 1 5 7 3 1 4 5 1 3 2 1 3 5 7 7 7 6 7 8 9 8 7 3 5 4 6 8 10 11 12 12 11 11 11 10 11 12 11 11 10 10 11 10 10 9 8 7 6 5 5 5 4 2 3 3 3 3 2 3 4 4 4 4 5 4 3 3 2 2 3 3 4 3 3 4 3 4 4 4 4 4 5 6 6 7
5 2 5 7 3 7 3 4 1 3 2 1 3 6 8 10 11 8 7 9 10 9 8 6 5 6 8 9 10 12 13 12 12 11 10 10 10 10 10 11 11 10 9 10 9 7 6 5 5 5 4 4 4 3 3 3 4 4 5 5 4 3 3 4 5 5 5 4 4 3 2 3 2 3 3 2 3 4 3 4 4 5 5 6 5 7
1 2 6 1 6 5 0 2 4 5 4 2 3 6 8 9 10 11 10 9 8 7 6 5 6 7 9 9 10 12 13 11 11 11 11 10 10 10 10 11 11 11 10 9 8 6 5 5 4 3 3 3 3 3 4 4 4 4 5 5 4 4 5 6 6 4 4 4 4 3 3 3 4 3 3 3 3 4 4 4 4 4 4 5 5 5
7 8 4 5 8 9 4 3 8 5 3 2 5 9 11 12 11 11 10 6 5 3 4 5 7 7 9 10 11 12 12 10 10 10 11 10 10 11 11 11 11 11 10 8 7 5 4 4 3 3 3 2 2 3 4 3 4 4 5 5 5 6 6 6 5 4 5 5 5 5 4 4 4 4 4 4 4 4 4 8 6 4 4 4 5 5
7 4 5 7 7 4 4 3 4 4 5 4 8 10 11 10 10 11 9 7 2 1 1 6 9 9 9 9 8 10 10 10 11 10 10 10 10 10 11 12 12 10 10 9 7 7 6 5 3 3 3 3 3 3 2 3 3 4 3 2 3 5 6 5 5 6 6 7 6 3 3 3 3 2 4 4 4 4 5 3 9 10 10 7 7 7
Wind_Direction
178 221 218 220 229 230 229 245 274 293 292 290 275 270 273 281 269 148 246 129 201 267 260 262 256 261 269 243 220 202 184 216 233 229 214 227 222 213 207 222 223 227 232 218 213 211 205 177 196 194 189 177 173 177 172 177 182 176 175 175 181 182 179 176 178 181 182 180 180 180 181 178 179 183 176 179 174 168 174 157 163 162 164 171 172 174
224 236 232 239 246 256 272 277 261 264 263 263 273 275 276 268 274 126 154 143 191 253 302 212 274 271 263 251 212 179 209 223 222 220 219 222 225 218 220 223 231 237 233 208 214 202 214 200 193 194 192 186 178 182 178 176 181 177 176 180 177 181 184 182 182 178 182 180 185 180 183 180 174 177 183 177 178 174 165 157 159 173 167 173 178 179
212 232 236 239 250 261 267 248 246 250 249 242 253 264 271 254 221 103 126 171 165 223 273 289 286 270 255 241 200 196 227 237 233 240 231 210 213 218 222 224 231 233 231 228 229 219 215 211 202 196 196 195 187 177 176 174 176 172 182 180 175 180 186 186 182 181 182 182 184 185 177 187 175 175 183 178 171 166 171 165 168 170 173 175 183 186
219 220 231 223 155 226 220 230 229 232 240 247 234 233 239 280 279 205 142 163 181 234 323 315 296 282 252 224 210 189 215 196 184 252 238 216 202 204 212 214 216 221 233 241 243 238 225 217 209 204 201 197 194 186 173 176 174 176 181 177 175 179 185 185 182 184 182 180 176 187 173 182 184 174 172 176 164 165 178 170 166 169 175 185 185 189
234 68 82 137 177 239 236 207 221 223 225 219 245 255 263 260 246 303 99 172 173 222 254 270 271 265 227 204 187 159 167 182 197 202 211 194 177 151 161 187 210 223 223 234 239 240 237 233 225 215 209 201 197 188 182 178 174 179 178 177 176 173 180 186 181 185 176 169 174 175 175 176 166 169 176 180 177 178 181 175 175 169 176 183 190 184
258 234 140 247 250 238 239 223 218 237 240 216 214 245 271 287 294 249 211 219 225 213 189 257 269 251 88 339 254 129 180 188 180 201 203 195 188 184 198 203 204 222 239 256 255 253 254 248 238 231 222 210 202 192 187 183 175 171 171 179 174 168 179 187 180 183 174 172 177 175 171 173 173 181 182 188 183 178 179 185 171 166 178 176 187 186
308 90 240 251 231 225 233 246 218 219 253 256 97 116 297 279 278 266 248 245 265 295 124 213 276 289 155 198 205 167 186 183 163 207 196 189 196 198 209 210 217 224 243 236 254 256 253 252 253 241 225 215 208 197 188 179 175 170 169 179 175 173 174 182 179 180 174 173 181 181 176 174 179 185 186 192 185 179 178 184 167 168 176 174 185 178
210 198 191 216 236 229 223 223 203 221 245 244 78 313 301 282 252 246 243 248 291 353 150 222 250 284 286 167 130 152 209 193 188 195 200 189 200 208 215 215 211 223 216 261 277 281 280 274 258 241 229 212 205 199 187 175 176 172 170 174 175 178 178 181 175 181 179 177 178 185 184 178 186 192 182 189 183 179 175 179 174 169 171 172 185 175
197 162 200 209 225 230 228 24 99 204 238 35 60 12 295 287 283 242 237 251 278 287 251 182 185 263 266 151 130 162 195 202 201 205 198 197 207 210 216 223 195 179 219 289 299 296 288 271 254 254 233 215 192 175 179 176 173 168 172 169 169 171 166 190 174 182 181 175 178 182 193 186 190 193 178 181 177 179 176 178 176 175 169 172 177 177
155 253 224 250 252 248 346 60 198 192 236 130 129 200 200 227 237 248 262 271 252 255 271 239 196 281 292 166 174 145 212 150 176 193 194 196 202 203 199 202 176 127 98 20 326 296 285 271 258 233 213 191 158 163 186 171 165 168 170 168 173 171 173 188 187 185 177 173 183 183 221 182 189 186 182 183 178 183 179 183 177 173 169 171 177 177
301 150 313 255 252 274 335 66 267 225 315 86 194 208 202 247 261 249 315 318 283 255 266 207 233 282 294 289 31 173 129 135 138 154 145 160 163 164 183 218 107 66 51 25 341 314 274 280 248 175 157 131 121 209 201 161 164 166 171 169 174 178 178 186 188 178 172 182 194 193 191 182 184 182 174 181 180 185 185 188 181 176 172 175 175 182
229 219 211 221 232 242 237 177 160 259 235 215 224 244 238 210 218 251 148 186 269 275 184 263 268 242 274 111 118 113 138 164 168 137 159 165 164 169 176 148 86 77 71 51 15 50 118 231 166 171 166 159 181 189 171 169 166 168 172 174 174 180 181 181 199 169 173 177 209 195 185 184 183 180 178 186 187 190 188 190 186 178 174 176 175 182
223 217 220 207 179 210 200 231 147 195 199 227 234 234 249 237 239 235 159 271 234 332 26 325 174 227 223 280 322 152 183 179 190 204 150 166 161 163 153 107 93 87 89 69 61 92 117 184 151 158 170 173 172 168 172 164 159 167 172 184 189 191 181 199 190 175 169 175 229 193 192 186 185 181 183 188 188 190 188 191 186 179 177 175 178 181
208 159 182 181 183 203 222 232 166 213 197 218 236 236 249 264 246 274 276 258 299 158 125 263 201 257 285 325 270 223 158 159 161 176 150 182 165 166 158 143 123 102 76 67 68 74 93 100 129 154 150 179 174 158 149 157 161 167 183 190 193 201 199 196 153 173 170 183 185 171 220 207 190 185 186 188 190 186 187 190 189 185 181 177 182 181
248 179 192 183 195 160 211 237 312 308 169 218 250 259 265 267 282 283 288 296 306 333 206 143 234 346 277 110 171 114 113 138 147 165 150 174 161 158 151 118 120 128 112 114 89 86 94 92 121 134 144 167 151 150 140 139 163 180 186 189 204 209 191 183 180 183 184 189 187 192 209 221 201 209 191 189 190 187 190 190 189 188 183 180 183 183
269 302 91 45 69 166 220 227 276 284 267 200 251 267 261 268 330 270 330 307 317 307 215 186 274 296 322 155 135 163 151 158 164 156 161 175 175 171 178 163 147 131 116 110 111 98 97 109 98 93 100 81 53 94 133 167 182 199 192 195 205 193 189 202 205 203 185 172 182 190 191 218 248 218 191 184 189 186 189 189 187 185 190 185 177 184
174 222 98 125 177 213 257 199 217 255 271 119 207 226 286 8 280 297 268 266 306 267 295 314 258 236 137 167 170 168 179 167 181 173 180 175 180 190 198 171 154 129 123 132 124 114 116 120 128 128 133 133 131 167 222 195 196 199 207 184 204 205 188 211 213 202 202 162 182 178 187 198 218 214 193 187 187 186 185 181 190 183 188 184 184 184
289 192 140 210 169 132 179 258 174 219 276 209 246 63 105 93 300 290 306 294 267 287 314 295 285 288 262 213 218 190 198 184 181 184 177 165 185 199 201 179 150 134 121 124 121 132 136 131 132 131 139 143 160 197 212 226 222 208 209 211 190 192 205 215 238 248 214 172 184 167 158 190 212 221 194 189 187 186 181 181 191 184 184 187 185 190
244 262 185 154 75 123 152 202 180 191 217 268 338 47 269 265 239 147 274 286 299 293 305 273 308 289 325 4 177 195 203 188 180 168 173 177 190 204 197 176 152 148 137 156 156 153 147 147 156 164 164 161 178 186 194 194 201 207 202 195 189 193 190 204 236 217 193 136 196 181 187 188 211 209 193 184 186 187 186 185 184 191 183 187 185 188
215 268 159 142 185 144 190 212 228 173 180 236 266 252 241 266 279 282 297 301 292 296 284 282 249 302 175 275 320 297 214 174 169 167 185 181 184 190 192 182 165 167 159 172 175 158 152 165 182 196 181 165 175 183 185 188 196 201 204 197 199 198 193 193 229 196 167 164 204 182 197 196 201 203 196 186 187 187 187 188 181 189 182 189 185 188
237 199 272 127 138 168 215 196 246 241 205 187 226 248 198 254 6 290 270 276 308 311 301 319 297 299 52 4 217 234 155 164 158 160 155 156 140 164 170 169 161 168 168 185 187 162 162 178 190 196 211 240 181 184 185 181 181 191 196 202 198 198 202 207 214 172 182 193 181 195 195 190 194 199 196 192 188 192 186 187 184 185 185 182 190 187
227 202 245 180 194 210 242 92 1 331 315 283 273 270 278 267 245 260 297 216 277 287 308 305 313 13 105 136 145 91 72 130 134 139 142 127 124 130 145 153 163 173 173 194 194 193 164 179 186 184 179 192 222 222 193 191 184 184 188 194 199 196 180 205 208 196 173 190 197 200 193 193 194 198 193 196 184 195 183 185 184 180 185 183 190 192
236 250 246 237 231 260 67 80 28 333 279 278 282 281 301 294 289 287 292 316 284 290 314 286 306 11 81 127 147 116 132 154 141 147 131 114 119 129 133 140 137 142 152 166 198 184 159 174 186 175 183 180 183 206 221 205 190 189 190 197 189 196 194 194 183 194 210 193 184 191 195 196 193 196 196 193 187 192 186 183 182 184 185 190 183 191
103 226 220 245 260 221 186 103 131 242 257 241 237 259 264 265 293 292 303 331 301 298 267 254 271 63 113 121 150 146 149 138 152 166 140 130 122 134 142 143 146 146 141 150 163 175 158 177 160 160 170 182 180 181 189 225 233 202 194 197 197 194 193 194 185 186 186 189 186 193 195 207 191 194 194 192 193 190 192 182 183 181 190 191 188 181
212 202 246 221 230 224 208 189 196 189 236 250 255 237 250 267 273 295 287 287 279 294 299 304 293 43 111 165 161 171 172 175 173 171 172 143 142 144 146 143 146 145 148 154 166 170 169 175 176 174 174 175 184 184 180 182 194 213 214 197 199 204 190 190 177 181 185 191 193 192 197 194 187 198 194 193 192 190 191 186 183 179 190 192 193 187
232 181 206 224 226 227 226 216 218 210 222 237 251 261 240 252 253 263 278 274 280 8 286 280 300 114 177 175 176 183 169 177 173 173 167 144 122 159 146 154 146 151 150 157 164 168 170 180 183 181 172 178 183 187 185 190 188 181 201 220 204 208 200 178 183 178 185 194 188 201 206 191 185 199 193 193 193 190 190 188 186 178 188 194 195 193
235 240 220 234 245 252 253 256 92 267 216 233 219 238 238 238 253 263 299 280 283 3 281 274 279 313 318 175 173 191 179 181 177 179 176 156 145 142 142 140 145 136 142 157 164 160 154 173 201 182 172 176 180 185 185 186 188 181 173 200 210 208 202 183 182 179 188 192 179 193 203 195 206 192 190 192 196 191 188 189 188 186 185 192 195 196
236 237 224 235 246 254 280 276 215 231 245 238 245 226 234 235 234 250 270 319 13 268 269 10 266 281 304 326 160 165 211 188 184 179 167 157 145 164 140 137 136 140 144 161 158 160 158 156 170 175 168 177 177 189 188 186 190 188 176 175 193 203 201 188 181 182 187 188 191 189 199 198 192 195 191 192 195 195 192 190 190 191 191 190 194 200
231 241 220 232 238 247 249 244 198 237 250 268 258 249 229 234 234 239 249 273 272 286 300 322 269 266 294 305 8 172 167 191 197 171 162 156 152 141 149 155 153 149 155 160 157 142 143 147 138 139 140 173 179 186 187 189 190 191 183 181 181 191 197 193 188 184 185 189 190 191 190 200 200 199 186 193 192 199 199 195 194 191 198 195 198 200
267 245 250 230 248 238 232 231 213 242 239 243 249 252 227 224 233 246 250 248 249 252 271 284 265 277 289 321 53 45 154 179 168 157 148 154 151 159 153 164 163 163 161 168 157 150 137 133 134 128 140 147 174 178 181 184 185 186 189 184 183 189 192 194 194 192 187 187 192 189 192 195 204 203 192 191 193 198 201 203 201 197 200 201 202 205
252 200 44 242 250 243 228 219 222 238 244 245 244 244 235 230 231 232 252 257 257 262 263 259 263 268 259 306 94 97 116 125 147 166 165 159 157 158 160 168 163 169 161 164 158 151 139 141 132 132 130 138 156 171 174 181 180 181 184 185 184 190 190 196 194 201 193 190 188 191 198 199 199 201 205 196 202 198 205 207 207 205 204 206 206 208
220 232 200 238 244 239 213 228 225 229 232 245 238 226 233 226 231 219 235 231 241 259 267 247 262 264 254 140 128 143 164 174 173 177 172 170 166 167 171 172 168 175 169 164 168 158 159 157 150 135 123 119 129 153 167 175 177 176 182 180 183 183 185 196 198 211 195 187 176 191 196 204 203 204 200 203 205 206 208 212 212 212 207 210 208 207
251 255 233 226 244 253 211 226 229 225 235 238 230 214 219 225 234 232 241 231 238 258 261 248 268 345 77 142 162 169 183 183 180 181 176 174 167 174 180 173 169 175 174 172 168 170 171 167 162 146 132 119 113 119 131 150 168 177 171 168 159 159 169 193 197 211 196 196 201 199 199 204 207 205 207 204 204 208 208 215 217 216 216 213 214 212
250 267 257 246 248 257 203 223 226 230 233 237 219 213 215 223 221 233 232 233 237 231 259 273 287 53 180 178 228 176 196 187 188 180 179 170 171 172 178 174 173 173 175 175 173 175 175 176 168 164 149 133 116 96 98 112 116 128 140 132 125 139 139 180 180 191 189 212 213 207 204 206 208 206 210 210 207 206 209 211 215 220 214 212 213 216
240 253 253 250 238 247 192 213 226 237 240 120 84 108 244 240 231 235 247 251 257 228 244 253 254 261 260 252 260 187 142 136 170 169 170 171 173 171 173 170 176 175 177 174 180 182 182 175 169 165 157 151 134 122 120 111 107 113 115 100 80 62 176 198 197 189 189 221 216 202 213 216 213 212 207 207 212 213 212 213 215 216 221 215 213 214
239 230 219 225 238 265 225 215 233 240 278 107 114 110 108 224 233 251 255 254 250 243 238 246 255 262 218 175 155 138 151 135 141 155 167 168 180 170 172 166 176 174 177 178 182 185 189 181 175 168 157 147 145 140 141 123 121 114 96 102 138 186 210 198 178 203 222 221 228 224 222 222 224 221 214 205 205 210 214 216 216 215 214 219 218 217
243 259 242 242 181 246 231 229 237 210 227 189 160 188 173 210 207 220 251 235 228 233 228 244 245 229 175 157 134 138 150 163 173 163 170 175 178 181 171 166 164 174 169 172 174 170 157 147 150 141 134 130 125 125 122 129 135 122 120 115 146 195 219 218 197 209 234 238 229 227 231 241 236 231 226 218 214 214 215 215 217 217 213 217 217 218
225 241 217 248 222 234 253 254 246 241 247 233 228 245 218 245 251 233 252 264 246 232 219 232 238 218 179 155 150 141 163 184 203 178 171 177 177 178 164 143 152 162 167 161 141 135 129 125 123 127 125 116 107 102 114 124 135 141 134 137 170 217 215 203 213 206 207 224 227 222 227 231 238 238 239 234 229 233 237 234 230 225 221 221 222 225
220 224 249 232 240 215 240 248 243 246 238 305 237 208 163 188 235 225 234 256 226 226 205 225 229 208 190 166 156 162 182 214 220 183 158 166 175 172 161 155 162 160 151 149 153 144 134 128 124 125 125 121 109 98 100 111 125 146 142 144 172 203 226 230 213 193 209 214 201 198 205 216 226 237 240 240 246 244 258 266 259 257 237 229 231 235
211 213 218 230 238 230 240 234 242 234 261 197 339 27 323 222 216 211 245 245 191 221 225 218 227 209 178 172 166 185 204 228 232 132 147 159 166 164 161 161 156 151 152 152 141 129 124 125 128 132 127 117 104 94 83 74 100 97 115 121 156 191 209 211 202 187 193 202 211 208 199 201 215 228 241 242 235 204 233 242 252 257 259 252 240 240
210 217 218 236 233 225 216 248 245 246 185 32 6 321 281 222 215 233 240 276 51 194 214 223 215 196 170 169 185 198 207 52 90 118 138 141 146 149 152 154 150 150 150 140 127 133 141 141 135 126 117 107 104 98 94 79 117 144 126 148 201 232 233 231 223 211 215 197 199 227 229 216 223 230 241 240 267 258 237 196 225 236 248 256 251 262
220 229 228 241 245 245 236 240 243 256 82 349 10 322 238 207 222 228 37 23 358 353 161 207 207 174 175 183 191 219 117 111 123 123 133 141 140 140 144 146 146 142 129 122 136 144 135 127 116 113 108 108 111 102 107 179 179 152 176 194 216 210 222 246 243 227 209 220 223 212 211 184 107 281 270 273 300 306 294 277 257 253 234 245 253 244
228 229 227 225 233 242 243 249 242 247 112 24 10 274 147 239 331 355 324 324 4 350 337 315 242 180 189 191 191 128 123 131 138 133 131 133 137 145 146 145 140 136 136 139 142 135 135 132 125 112 109 118 124 145 156 211 196 197 194 230 197 163 199 213 224 222 204 180 169 142 167 175 214 222 241 261 270 279 276 273 275 272 274 264 253 253
218 243 235 244 240 249 233 236 250 15 44 41 322 275 83 320 357 330 334 309 321 337 331 324 286 237 202 189 167 147 142 133 128 127 128 130 138 139 142 143 143 141 150 148 139 141 136 124 118 116 115 125 143 160 176 223 214 210 224 218 141 177 176 194 218 218 208 194 190 185 175 185 229 259 280 283 283 276 277 277 278 277 273 275 271 275
144 246 306 266 164 229 265 351 72 18 25 20 306 296 300 313 325 317 299 293 292 296 315 297 308 276 212 188 157 148 146 145 135 136 136 139 141 142 143 149 146 151 147 140 138 136 138 131 127 130 138 146 159 156 191 218 231 217 230 184 169 210 199 176 189 236 244 202 160 277 269 231 233 223 247 265 265 275 278 274 272 270 273 272 268 263
59 32 336 262 212 353 248 50 12 39 59 11 345 354 322 326 324 307 295 291 290 291 283 287 301 292 202 186 163 155 152 147 141 137 135 140 139 134 137 138 140 140 131 131 132 134 126 129 132 144 147 155 166 172 190 210 245 243 236 187 226 244 211 194 195 227 227 206 186 231 280 271 285 281 252 248 250 258 264 273 275 271 272 266 266 269
159 236 225 239 104 257 226 131 188 31 227 71 352 354 354 348 344 323 295 280 282 290 287 254 252 242 201 188 176 156 149 151 143 136 133 131 132 137 142 141 140 144 142 139 127 130 136 138 144 154 163 165 171 201 206 218 222 262 265 247 229 228 237 225 200 203 185 202 211 238 248 256 246 235 229 231 244 254 258 253 253 258 256 257 263 262
189 38 276 234 224 234 268 97 354 336 153 80 342 4 355 349 341 331 307 288 282 280 276 259 211 198 181 183 175 148 147 147 137 135 137 135 138 143 139 138 137 136 131 128 133 141 142 148 146 155 171 167 177 198 218 219 228 226 230 232 233 239 235 234 238 218 185 193 211 227 204 245 111 254 260 250 246 254 243 245 250 246 247 258 266 273
7 263 237 185 235 241 168 121 357 293 207 208 357 23 3 349 339 326 320 305 283 265 242 217 210 179 171 165 156 141 138 137 138 139 133 135 140 142 142 141 140 134 130 128 126 135 135 139 149 160 184 186 187 204 222 234 241 240 238 239 235 212 221 219 211 227 221 210 227 222 213 239 249 265 267 267 255 239 244 258 245 245 262 251 257 266
233 234 247 252 244 238 269 15 6 281 208 154 358 355 350 344 339 332 324 308 306 263 205 175 152 153 150 154 153 143 130 128 132 137 139 140 144 141 140 139 139 138 137 141 154 153 149 158 160 174 192 204 199 226 239 239 241 240 243 240 230 230 233 224 218 208 218 233 237 244 224 215 233 226 250 259 257 261 241 198 219 260 285 294 15 357
241 280 251 239 249 238 46 36 40 332 290 316 341 339 338 345 345 337 341 335 332 314 213 151 131 131 132 136 145 133 127 130 132 135 134 136 137 142 144 145 146 148 143 153 153 152 157 156 171 178 189 200 195 224 229 242 227 229 228 245 273 254 250 230 216 210 212 223 251 288 295 260 248 243 253 253 252 253 277 240 186 212 221 228 264 275